Theta_e
293 288 288 290 297 315 321 324 328 325 328 325 323 335 336 350 346 349 353 355 360 364 363 362 360 358 358 358 358 357 357 358
292 291 291 294 300 320 321 327 328 328 325 332 342 341 344 352 346 349 352 356 362 363 363 362 360 359 358 357 357 357 357 358
288 290 292 295 298 321 321 323 330 331 325 328 337 340 348 351 351 351 352 356 358 362 363 362 361 359 359 358 359 358 357 358
286 290 294 297 312 320 324 329 328 329 329 328 333 340 344 343 346 351 350 352 355 361 361 361 361 360 360 359 358 358 359 359
290 290 294 298 302 310 313 311 309 316 318 324 328 332 333 335 335 334 336 336 337 338 347 358 360 360 360 359 358 358 358 359
286 289 292 299 304 302 307 309 315 316 310 309 326 327 330 330 330 329 330 331 331 333 335 339 350 357 360 360 360 359 359 359
290 291 293 302 307 313 317 314 316 318 321 325 325 326 324 324 325 327 328 327 330 331 332 337 347 349 350 351 352 353 355 356
293 294 297 304 307 309 312 315 314 319 324 323 323 322 320 319 319 321 322 325 326 328 328 330 333 334 335 338 337 339 341 344
295 298 301 303 304 309 312 308 314 315 317 319 319 318 318 318 319 319 320 323 325 325 326 325 325 326 329 331 332 333 334 336
297 302 301 303 308 306 308 311 320 320 319 318 317 316 317 317 317 318 319 321 324 324 323 323 323 324 326 327 328 329 330 332
299 299 301 306 304 305 306 313 316 317 317 316 315 315 317 318 319 319 318 320 322 324 323 323 322 323 324 325 325 327 328 329
299 299 301 304 304 307 309 314 315 315 314 315 315 315 316 317 317 317 319 320 321 322 323 323 321 322 323 324 325 326 325 326
297 299 299 307 303 301 311 313 312 313 313 314 315 316 316 316 317 318 318 320 320 321 323 321 321 322 323 324 325 323 324 325
295 300 301 300 293 300 310 311 310 311 313 314 314 315 315 316 314 316 317 318 319 324 321 320 320 321 323 324 323 323 323 323
295 299 300 298 294 302 308 310 309 310 311 313 313 314 315 317 316 316 317 316 317 320 318 320 320 320 321 323 321 323 322 321
291 295 297 297 296 301 305 309 309 309 311 312 312 313 315 317 318 318 317 316 316 317 318 319 320 320 320 320 321 321 320 320
294 298 296 294 295 299 301 303 305 307 309 310 312 315 316 317 317 316 317 316 316 316 317 318 319 317 317 317 318 320 319 320
295 297 295 293 293 295 300 301 303 306 308 310 311 313 314 315 315 315 315 316 315 316 316 316 318 317 319 319 320 319 319 319
292 295 294 292 291 292 301 304 303 305 310 310 310 310 311 312 314 314 314 314 314 314 315 316 318 318 318 317 315 313 314 316
293 290 288 291 284 288 298 300 301 303 306 307 308 308 309 309 311 311 311 312 312 313 315 316 316 316 314 312 309 312 312 314
Wind_Speed
6 4 5 4 3 6 3 7 3 4 4 2 4 2 4 4 5 7 6 5 5 7 6 6 7 9 7 9 10 10 10 9
7 0 3 4 3 6 5 3 4 5 6 5 8 3 5 2 6 8 6 7 8 8 6 4 4 5 5 5 6 8 9 9
4 4 3 3 5 5 4 3 3 2 4 6 8 10 9 10 9 11 7 6 7 10 8 5 3 2 3 2 1 3 5 7
2 6 7 3 6 3 2 2 5 6 5 4 4 11 9 9 9 10 9 7 6 8 6 6 5 4 2 1 2 4 5 6
1 4 5 5 3 4 3 5 6 2 5 3 9 7 6 11 12 12 10 10 8 7 7 7 6 5 5 3 3 5 5 7
1 1 4 5 5 0 7 3 3 4 4 4 2 4 7 9 9 11 10 9 7 6 7 6 5 9 7 6 5 6 6 7
1 3 2 5 6 5 6 6 6 5 3 8 7 4 9 9 10 8 10 8 5 9 11 9 8 8 10 11 12 11 8 9
3 3 6 5 5 7 5 5 6 10 9 6 5 7 11 8 7 7 6 6 7 8 8 6 6 6 6 5 4 4 5 5
1 5 7 8 5 4 14 3 5 19 13 6 7 8 9 6 6 5 3 4 6 6 5 6 5 3 2 2 3 4 6 5
5 7 7 9 12 7 4 9 15 18 15 8 9 8 8 7 6 4 4 4 3 5 6 6 4 4 4 3 3 3 4 5
5 7 6 7 4 5 3 7 7 7 7 9 8 7 4 7 7 6 5 4 4 4 5 4 5 4 4 4 3 3 3 4
5 6 5 9 3 4 3 7 7 7 6 5 7 8 5 5 6 6 6 3 2 3 3 3 3 2 2 3 3 3 4 4
1 6 4 9 5 3 9 10 10 8 6 6 8 7 10 10 8 8 5 6 6 4 3 3 1 1 2 2 3 3 3 4
4 6 5 5 7 6 11 16 13 10 9 9 8 8 7 8 7 8 6 8 7 5 7 6 4 3 3 3 3 4 4 3
5 7 6 4 6 5 8 10 9 9 8 7 6 7 6 6 5 7 7 7 6 7 7 7 5 4 4 4 3 4 3 3
3 1 2 6 4 6 10 12 14 8 8 8 8 11 9 6 4 6 7 5 6 5 6 5 3 2 2 3 4 4 4 4
3 0 3 5 3 8 6 4 7 7 7 7 9 5 4 4 7 7 7 7 8 6 7 4 3 2 2 3 3 4 4 5
3 4 4 5 2 3 6 7 9 12 9 9 6 7 4 6 6 8 8 9 8 8 7 4 2 3 3 2 3 3 4 5
3 4 4 3 5 4 1 2 3 7 9 6 10 8 6 7 9 8 8 8 7 7 7 4 3 2 3 2 3 3 4 4
2 4 3 3 5 5 4 7 1 4 8 7 6 6 7 7 7 5 6 5 5 3 2 2 4 1 2 2 3 3 4 7
Wind_Direction
85 102 146 183 267 158 101 109 108 127 55 49 15 90 35 322 91 80 73 54 56 87 95 112 121 130 134 138 146 152 155 156
77 42 224 176 258 116 109 287 190 126 72 86 43 37 331 318 116 80 63 79 90 74 60 79 117 122 133 151 166 172 173 177
63 303 251 248 208 143 146 341 43 75 99 65 18 0 18 52 78 83 70 72 67 57 56 65 78 92 115 113 287 230 218 218
48 317 312 4 94 113 92 95 49 53 78 69 322 21 12 45 62 77 73 56 53 65 71 64 48 45 40 83 256 278 284 268
119 319 20 27 354 49 118 79 25 69 79 105 23 48 59 68 59 55 52 53 31 20 19 30 38 35 12 360 300 288 284 282
357 341 46 331 78 24 45 33 322 356 116 121 210 90 95 71 70 66 57 50 31 29 22 37 33 24 15 358 342 320 299 290
129 137 82 358 95 15 26 69 47 346 94 130 142 142 78 67 51 54 52 47 42 45 42 31 39 33 34 6 3 353 340 324
225 141 130 103 79 127 101 109 69 85 98 113 122 91 82 82 76 59 48 40 45 46 44 42 44 33 31 14 0 7 359 331
222 112 135 123 83 94 123 339 191 151 157 143 98 76 88 70 80 104 84 56 47 63 54 59 55 47 41 31 20 11 1 348
168 136 126 142 126 152 191 190 167 156 144 129 130 140 143 143 152 147 126 118 86 55 61 50 50 36 23 24 18 15 354 354
98 132 127 109 107 144 144 133 121 123 124 145 152 162 153 139 137 141 118 122 99 86 71 52 48 27 26 16 18 359 4 358
128 143 125 126 137 89 240 136 139 139 154 165 168 169 139 156 164 165 156 170 163 108 80 53 57 36 3 349 347 6 358 351
238 166 144 111 345 189 159 151 162 180 185 190 207 189 178 179 176 176 195 172 189 188 189 211 227 286 311 315 336 340 336 344
254 151 191 83 230 229 159 165 181 175 179 185 204 208 201 182 174 179 187 187 193 195 193 210 213 234 258 279 301 305 316 318
302 204 144 178 233 202 155 163 178 179 173 180 214 250 235 205 181 181 207 194 202 199 205 211 220 225 242 259 266 274 292 298
230 312 176 172 212 165 169 173 194 181 178 188 208 217 210 211 208 224 238 242 246 224 226 224 237 270 276 270 260 246 261 274
280 201 138 206 184 172 183 181 192 198 194 201 219 247 232 181 213 228 249 248 246 247 247 223 231 257 274 252 274 283 272 283
294 354 138 182 206 62 158 206 206 192 189 201 223 249 246 216 221 224 233 234 252 244 254 236 193 225 236 250 270 262 280 293
183 349 44 60 338 346 293 334 279 218 185 187 212 229 263 243 231 233 234 237 256 255 251 247 241 329 321 306 306 317 301 299
96 80 213 46 260 295 318 314 317 186 164 193 228 232 235 238 238 226 249 257 274 304 266 14 31 357 321 279 282 270 286 289